Beckley, WV

10:25 AM EDT on April 23, 2017 (GMT -0400)
Raleigh County Memorial

Weather History for KBKW - March, 2013

Change the Weather History Date:

Monday, March 18, 2013

  Actual Average Record
Temperature  
Mean Temperature 38 °F 42 °F  
Max Temperature 42 °F 52 °F 81 °F (1927)
Min Temperature 33 °F 33 °F 5 °F (1902)
Degree Days  
Heating Degree Days 27 22  
Month to date heating degree days 519 450  
Since 1 July heating degree days 4333 4451  
Cooling Degree Days 0 0  
Month to date cooling degree days 0 0  
Year to date cooling degree days 0 0  
Moisture  
Dew Point 33 °F    
Average Humidity 86    
Maximum Humidity 92    
Minimum Humidity 79    
Precipitation  
Precipitation 0.13 in 0.12 in 2.53 in (1927)
Month to date precipitation 1.20 2.04  
Year to date precipitation 7.39 7.61  
Snow  
Snow 0.00 in - - ()
Month to date snowfall 8.8  
Since 1 September snowfall 64.7  
Snow Depth 0.00 in    
Sea Level Pressure  
Sea Level Pressure 29.95 in    
Wind  
Wind Speed 14 mph (SE)    
Max Wind Speed 29 mph    
Max Gust Speed 40 mph    
Visibility 10 miles    
Events Rain    
T = Trace of Precipitation, MM = Missing Value Source: NWS Daily Summary

Daily Weather History Graph

Daily Weather History Graph

Search for Another Location

Airport or City:

Trip Planner

Search our weather history database for the weather conditions in past years. The results will help you decide how hot, cold, wet, or windy it might be!

Date:

Astronomy

Mar. 18, 2013 Rise Set
Actual Time 7:30 AM EDT 7:34 PM EDT
Civil Twilight 7:04 AM EDT 8:00 PM EDT
Nautical Twilight 6:34 AM EDT 8:31 PM EDT
Astronomical Twilight 6:03 AM EDT 9:02 PM EDT
Moon 11:35 AM EDT (3/18) 1:27 AM EDT (3/18)
Length of Visible Light 12h 56m
Length of Day
12h 04m
Waxing Crescent, 40% of the Moon is Illuminated
Mar 18
Waxing Crescent
Mar 19
First Quarter
Mar 27
Full
Apr 3
Last Quarter
Apr 10
New

Hourly Weather History & Observations

Time (EDT) Temp. Windchill Dew Point Humidity Pressure Visibility Wind Dir Wind Speed Gust Speed Precip Events Conditions
12:43 AM 37.4 °F 30.8 °F 35.6 °F 93% 30.00 in 10.0 mi SE 9.2 mph 26.5 mph 0.00 in Rain Light Rain
12:51 AM 37.0 °F 27.0 °F 35.1 °F 93% 30.04 in 10.0 mi SE 18.4 mph 24.2 mph 0.00 in Rain Light Rain
1:41 AM 37.4 °F 29.3 °F 33.8 °F 87% 30.00 in 10.0 mi SE 12.7 mph 23.0 mph 0.00 in Rain Light Rain
1:51 AM 36.0 °F 27.1 °F 34.0 °F 93% 30.04 in 10.0 mi SE 13.8 mph 24.2 mph 0.00 in Rain Light Rain
2:51 AM 36.0 °F 26.7 °F 33.1 °F 89% 30.04 in 10.0 mi SE 15.0 mph 27.6 mph 0.00 in   Overcast
3:51 AM 35.1 °F 25.2 °F 32.0 °F 89% 30.05 in 10.0 mi SE 16.1 mph 27.6 mph N/A   Overcast
4:51 AM 35.1 °F 24.5 °F 32.0 °F 89% 30.04 in 10.0 mi SE 18.4 mph 28.8 mph N/A   Overcast
5:51 AM 35.1 °F 24.5 °F 30.9 °F 85% 30.02 in 10.0 mi SE 18.4 mph 29.9 mph N/A   Overcast
6:51 AM 34.0 °F 22.4 °F 30.9 °F 89% 30.01 in 10.0 mi SE 20.7 mph 33.4 mph N/A   Overcast
7:51 AM 34.0 °F 24.2 °F 30.0 °F 85% 30.00 in 10.0 mi SE 15.0 mph 31.1 mph N/A   Overcast
8:51 AM 34.0 °F 22.7 °F 30.0 °F 85% 29.99 in 10.0 mi SE 19.6 mph 33.4 mph N/A   Overcast
9:51 AM 34.0 °F 21.8 °F 30.9 °F 89% 29.97 in 10.0 mi SE 23.0 mph 35.7 mph N/A   Overcast
10:51 AM 35.1 °F 23.5 °F 30.0 °F 82% 29.96 in 10.0 mi SE 21.9 mph 34.5 mph N/A   Overcast
11:42 AM 35.6 °F 23.7 °F 30.2 °F 81% 29.89 in 10.0 mi SE 24.2 mph 35.7 mph N/A   Overcast
11:51 AM 36.0 °F 25.6 °F 30.9 °F 82% 29.95 in 10.0 mi SE 18.4 mph 29.9 mph N/A   Overcast
12:51 PM 35.1 °F 26.9 °F 30.0 °F 82% 30.00 in 10.0 mi South 11.5 mph 19.6 mph N/A   Overcast
1:16 PM 33.8 °F 24.8 °F 30.2 °F 87% 29.92 in 10.0 mi SE 12.7 mph 21.9 mph 0.00 in Rain Light Rain
1:51 PM 35.1 °F 27.4 °F 30.9 °F 85% 29.96 in 10.0 mi ESE 10.4 mph 19.6 mph 0.00 in Rain Light Rain
2:51 PM 34.0 °F 27.2 °F 30.9 °F 89% 30.00 in 4.0 mi SSE 8.1 mph - 0.05 in Rain Rain
3:12 PM 33.8 °F 28.6 °F 32.0 °F 93% 29.92 in 4.0 mi SE 5.8 mph - 0.03 in Rain Light Rain
3:51 PM 37.9 °F 30.9 °F 36.0 °F 93% 29.95 in 10.0 mi SE 10.4 mph - 0.05 in   Mostly Cloudy
4:51 PM 39.0 °F 32.3 °F 34.0 °F 82% 29.93 in 10.0 mi SE 10.4 mph 19.6 mph N/A   Overcast
5:51 PM 36.0 °F 26.3 °F 34.0 °F 93% 29.88 in 10.0 mi SSE 16.1 mph 25.3 mph 0.01 in Rain Light Rain
6:51 PM 37.9 °F 29.6 °F 35.1 °F 89% 29.87 in 6.0 mi SSE 13.8 mph 23.0 mph 0.01 in Rain Light Rain
7:51 PM 37.0 °F 28.9 °F 34.0 °F 89% 29.83 in 10.0 mi SSE 12.7 mph 19.6 mph 0.01 in   Clear
8:51 PM 37.9 °F 32.7 °F 35.1 °F 89% 29.84 in 10.0 mi SE 6.9 mph - N/A   Clear
9:51 PM 39.9 °F 34.5 °F 36.0 °F 86% 29.83 in 10.0 mi SE 8.1 mph - N/A   Mostly Cloudy
10:51 PM 41.0 °F 37.1 °F 36.0 °F 82% 29.83 in 10.0 mi SE 5.8 mph - N/A   Overcast
11:51 PM 41.0 °F 38.0 °F 37.0 °F 86% 29.82 in 10.0 mi ESE 4.6 mph - N/A   Overcast